VRG1389 MMUN-KMSY

Flight info

Callsign VRG1389
Flight time 1h 29m
Altitude 38000
Route ENEBA UT27 OMVIP UT45 IRDOV L214 LEV DCT LSU AWDAD1
Aircraft B742/H-SDFGHILRUWY/S

Departure

Time 2026-04-30 20:55
Airport Cancún International Airport (MMUN)

Arrival

Time 2026-04-30 22:24
Airport Louis Armstrong New Orleans International Airport (KMSY)
Time Latitude Longitude Altitude Speed Heading
2026-04-30 19:31 21.04017 -86.87713 26 ft 0 kts 101°
2026-04-30 20:38 21.04017 -86.87715 26 ft 1 kts 101°
2026-04-30 20:38 21.04021 -86.87730 27 ft 2 kts 117°
2026-04-30 20:39 21.04041 -86.87755 27 ft 2 kts 144°
2026-04-30 20:39 21.04054 -86.87763 27 ft 2 kts 158°
2026-04-30 20:39 21.04068 -86.87768 27 ft 2 kts 172°
2026-04-30 20:40 21.04099 -86.87766 28 ft 2 kts 199°
2026-04-30 20:40 21.04112 -86.87759 28 ft 2 kts 213°
2026-04-30 20:40 21.04117 -86.87755 28 ft 0 kts 214°
2026-04-30 20:45 21.04107 -86.87762 28 ft 5 kts 213°
2026-04-30 20:45 21.04045 -86.87804 27 ft 14 kts 212°
2026-04-30 20:46 21.04060 -86.88030 27 ft 12 kts 303°
2026-04-30 20:46 21.04113 -86.88120 28 ft 16 kts 302°
2026-04-30 20:47 21.04270 -86.88367 33 ft 22 kts 303°
2026-04-30 20:47 21.04358 -86.88508 36 ft 22 kts 303°
2026-04-30 20:48 21.04534 -86.88789 37 ft 23 kts 303°
2026-04-30 20:48 21.04590 -86.88879 37 ft 6 kts 303°
2026-04-30 20:48 21.04592 -86.88882 37 ft 0 kts 303°
2026-04-30 20:49 21.04593 -86.88884 37 ft 1 kts 303°
2026-04-30 20:50 21.04633 -86.88987 38 ft 8 kts 262°
2026-04-30 20:50 21.04623 -86.89012 38 ft 0 kts 232°
2026-04-30 20:52 21.04607 -86.89028 37 ft 7 kts 219°
2026-04-30 20:53 21.04531 -86.89068 36 ft 13 kts 172°
2026-04-30 20:53 21.04491 -86.89036 35 ft 0 kts 125°
2026-04-30 20:54 21.04490 -86.89035 35 ft 2 kts 125°
2026-04-30 20:54 21.04352 -86.88814 36 ft 70 kts 124°
2026-04-30 20:54 21.03953 -86.88174 28 ft 134 kts 123°
2026-04-30 20:55 21.02802 -86.86200 966 ft 160 kts 122°
2026-04-30 20:55 21.02231 -86.85187 1626 ft 161 kts 122°
2026-04-30 20:55 21.01651 -86.84166 2270 ft 162 kts 122°
2026-04-30 20:56 21.00466 -86.82062 3386 ft 175 kts 122°
2026-04-30 20:56 20.99794 -86.80872 3778 ft 195 kts 122°
2026-04-30 20:56 20.98224 -86.78115 4559 ft 238 kts 122°
2026-04-30 20:57 20.97310 -86.76517 4949 ft 260 kts 122°
2026-04-30 20:57 20.96392 -86.74757 5324 ft 283 kts 111°
2026-04-30 20:57 20.96148 -86.72555 5708 ft 306 kts 88°
2026-04-30 20:58 20.97842 -86.68302 6745 ft 325 kts 50°
2026-04-30 20:58 20.99646 -86.66760 7546 ft 325 kts 31°
2026-04-30 20:58 21.01719 -86.65951 8423 ft 314 kts 12°
2026-04-30 20:58 21.03887 -86.65909 9314 ft 308 kts 353°
2026-04-30 20:59 21.07739 -86.67822 11006 ft 309 kts 328°
2026-04-30 20:59 21.09369 -86.69378 11431 ft 314 kts 312°
2026-04-30 21:00 21.11978 -86.73261 12553 ft 321 kts 307°
2026-04-30 21:00 21.14484 -86.77221 13727 ft 325 kts 307°
2026-04-30 21:01 21.17436 -86.80846 14783 ft 324 kts 330°
2026-04-30 21:01 21.19473 -86.81893 15274 ft 323 kts 346°
2026-04-30 21:01 21.23926 -86.82798 16225 ft 329 kts 339°
2026-04-30 21:02 21.25934 -86.84035 16607 ft 331 kts 323°
2026-04-30 21:02 21.27729 -86.85672 17005 ft 337 kts 321°
2026-04-30 21:02 21.29506 -86.87267 17602 ft 336 kts 322°
2026-04-30 21:02 21.31440 -86.88612 18353 ft 325 kts 338°
2026-04-30 21:03 21.33605 -86.89241 19025 ft 318 kts 354°
2026-04-30 21:03 21.35807 -86.89367 19380 ft 322 kts
2026-04-30 21:03 21.38079 -86.89414 19661 ft 330 kts 358°
2026-04-30 21:03 21.40431 -86.89539 19905 ft 340 kts 356°
2026-04-30 21:04 21.42831 -86.89726 20146 ft 350 kts 355°
2026-04-30 21:04 21.45295 -86.89945 20385 ft 361 kts 355°
2026-04-30 21:04 21.50467 -86.90431 20861 ft 383 kts 354°
2026-04-30 21:05 21.53185 -86.90690 21098 ft 393 kts 354°
2026-04-30 21:05 21.55989 -86.90958 21336 ft 404 kts 354°
2026-04-30 21:05 21.58849 -86.91231 21576 ft 415 kts 354°
2026-04-30 21:05 21.61795 -86.91388 21812 ft 425 kts 359°
2026-04-30 21:06 21.64817 -86.91346 22251 ft 430 kts 360°
2026-04-30 21:06 21.67821 -86.91347 22808 ft 431 kts 358°
2026-04-30 21:06 21.70856 -86.91438 23391 ft 432 kts 356°
2026-04-30 21:06 21.73914 -86.91601 23904 ft 434 kts 356°
2026-04-30 21:07 21.76953 -86.91808 24349 ft 437 kts 355°
2026-04-30 21:07 21.80017 -86.92043 24841 ft 439 kts 355°
2026-04-30 21:07 21.83126 -86.92295 25309 ft 441 kts 354°
2026-04-30 21:07 21.86213 -86.92551 25793 ft 443 kts 354°
2026-04-30 21:08 21.89296 -86.92810 26236 ft 445 kts 355°
2026-04-30 21:08 21.92428 -86.93073 26625 ft 448 kts 355°
2026-04-30 21:08 21.95549 -86.93335 27030 ft 451 kts 355°
2026-04-30 21:08 21.98729 -86.93602 27435 ft 453 kts 355°
2026-04-30 21:09 22.01900 -86.93869 27875 ft 454 kts 355°
2026-04-30 21:09 22.05083 -86.94136 28211 ft 457 kts 355°
2026-04-30 21:09 22.08255 -86.94403 28631 ft 457 kts 355°
2026-04-30 21:09 22.11458 -86.94672 28977 ft 460 kts 355°
2026-04-30 21:10 22.14707 -86.94946 29273 ft 463 kts 355°
2026-04-30 21:10 22.17954 -86.95219 29644 ft 464 kts 355°
2026-04-30 21:10 22.21181 -86.95491 29846 ft 463 kts 354°
2026-04-30 21:10 22.24436 -86.95765 29982 ft 469 kts 354°
2026-04-30 21:11 22.27710 -86.96041 30355 ft 469 kts 355°
2026-04-30 21:11 22.30988 -86.96318 30688 ft 471 kts 354°
2026-04-30 21:11 22.34285 -86.96596 30973 ft 473 kts 354°
2026-04-30 21:11 22.37624 -86.96879 31359 ft 473 kts 354°
2026-04-30 21:12 22.40901 -86.97156 32001 ft 467 kts 354°
2026-04-30 21:12 22.44169 -86.97431 32512 ft 465 kts 354°
2026-04-30 21:12 22.47390 -86.97704 32956 ft 464 kts 354°
2026-04-30 21:12 22.50630 -86.97978 33401 ft 463 kts 354°
2026-04-30 21:13 22.53883 -86.98253 34040 ft 458 kts 354°
2026-04-30 21:13 22.57032 -86.98518 34648 ft 454 kts 354°
2026-04-30 21:13 22.60206 -86.98787 35188 ft 450 kts 354°
2026-04-30 21:13 22.63318 -86.99050 35631 ft 448 kts 354°
2026-04-30 21:14 22.66458 -86.99317 36022 ft 447 kts 353°
2026-04-30 21:14 22.69572 -86.99582 36357 ft 446 kts 353°
2026-04-30 21:14 22.72674 -86.99846 36708 ft 445 kts 353°
2026-04-30 21:14 22.75767 -87.00108 37082 ft 443 kts 353°
2026-04-30 21:15 22.78866 -87.00372 37391 ft 442 kts 353°
2026-04-30 21:15 22.81969 -87.00635 37629 ft 443 kts 353°
2026-04-30 21:15 22.85031 -87.00897 37841 ft 443 kts 353°
2026-04-30 21:15 22.88152 -87.01163 37950 ft 446 kts 353°
2026-04-30 21:16 22.94436 -87.01700 37962 ft 454 kts 353°
2026-04-30 21:16 23.00805 -87.02242 37962 ft 453 kts 353°
2026-04-30 21:17 23.03929 -87.02799 37961 ft 450 kts 342°
2026-04-30 21:17 23.06853 -87.04081 37967 ft 449 kts 331°
2026-04-30 21:17 23.12136 -87.07800 37963 ft 451 kts 323°
2026-04-30 21:18 23.17164 -87.11884 37961 ft 447 kts 322°
2026-04-30 21:18 23.22125 -87.15955 37961 ft 447 kts 323°
2026-04-30 21:19 23.27150 -87.20058 37961 ft 449 kts 323°
2026-04-30 21:19 23.32167 -87.24144 37960 ft 447 kts 323°
2026-04-30 21:20 23.37203 -87.28244 37963 ft 449 kts 323°
2026-04-30 21:20 23.42184 -87.32305 37966 ft 448 kts 323°
2026-04-30 21:21 23.47122 -87.36333 37968 ft 439 kts 322°
2026-04-30 21:22 23.54524 -87.42380 37929 ft 448 kts 323°
2026-04-30 21:23 23.64561 -87.50593 37890 ft 447 kts 322°
2026-04-30 21:23 23.72044 -87.56725 37891 ft 449 kts 322°
2026-04-30 21:24 23.77060 -87.60799 37890 ft 449 kts 323°
2026-04-30 21:24 23.82086 -87.64867 37890 ft 448 kts 323°
2026-04-30 21:25 23.89609 -87.70966 37902 ft 450 kts 322°
2026-04-30 21:26 23.97148 -87.77092 37902 ft 448 kts 322°
2026-04-30 21:27 24.04664 -87.83209 37904 ft 449 kts 322°
2026-04-30 21:27 24.09657 -87.87277 37902 ft 448 kts 322°
2026-04-30 21:28 24.17161 -87.93398 37893 ft 449 kts 322°
2026-04-30 21:29 24.24696 -87.99555 37887 ft 449 kts 322°
2026-04-30 21:29 24.32200 -88.05695 37744 ft 451 kts 322°
2026-04-30 21:30 24.37267 -88.09847 36842 ft 460 kts 321°
2026-04-30 21:31 24.45010 -88.16199 35481 ft 462 kts 322°
2026-04-30 21:31 24.50361 -88.20221 34595 ft 474 kts 331°
2026-04-30 21:32 24.56522 -88.22984 33926 ft 475 kts 338°
2026-04-30 21:32 24.59644 -88.24168 33886 ft 473 kts 339°
2026-04-30 21:32 24.65934 -88.26530 33883 ft 481 kts 339°
2026-04-30 21:33 24.75432 -88.30177 33883 ft 480 kts 338°
2026-04-30 21:34 24.81731 -88.32624 33882 ft 480 kts 338°
2026-04-30 21:34 24.91180 -88.36304 33884 ft 480 kts 338°
2026-04-30 21:35 24.97514 -88.38774 33882 ft 478 kts 338°
2026-04-30 21:35 25.03853 -88.41249 33883 ft 478 kts 338°
2026-04-30 21:36 25.10189 -88.43726 33885 ft 482 kts 338°
2026-04-30 21:37 25.22907 -88.48704 33884 ft 479 kts 338°
2026-04-30 21:37 25.29215 -88.51178 33887 ft 479 kts 338°
2026-04-30 21:38 25.35597 -88.53683 33890 ft 479 kts 338°
2026-04-30 21:38 25.41908 -88.56164 33890 ft 479 kts 338°
2026-04-30 21:39 25.48181 -88.58630 33889 ft 477 kts 338°
2026-04-30 21:39 25.54477 -88.61111 33893 ft 480 kts 337°
2026-04-30 21:40 25.60792 -88.63602 33893 ft 478 kts 337°
2026-04-30 21:40 25.67087 -88.66085 33899 ft 477 kts 337°
2026-04-30 21:41 25.73411 -88.68586 33899 ft 478 kts 337°
2026-04-30 21:41 25.79713 -88.71079 33898 ft 475 kts 336°
2026-04-30 21:42 25.85988 -88.73563 33902 ft 477 kts 336°
2026-04-30 21:42 25.92316 -88.76073 33898 ft 475 kts 337°
2026-04-30 21:43 25.98569 -88.78555 33903 ft 477 kts 336°
2026-04-30 21:43 26.04906 -88.81076 33901 ft 477 kts 336°
2026-04-30 21:44 26.11155 -88.83560 33904 ft 474 kts 336°
2026-04-30 21:44 26.17441 -88.86064 33902 ft 475 kts 336°
2026-04-30 21:45 26.23691 -88.88557 33901 ft 475 kts 336°
2026-04-30 21:45 26.29966 -88.91063 33894 ft 477 kts 336°
2026-04-30 21:46 26.36267 -88.93582 33885 ft 477 kts 336°
2026-04-30 21:46 26.42562 -88.96101 33884 ft 476 kts 336°
2026-04-30 21:47 26.48805 -88.98601 33884 ft 474 kts 336°
2026-04-30 21:47 26.55081 -89.01118 33883 ft 475 kts 336°
2026-04-30 21:48 26.61356 -89.03641 33883 ft 477 kts 336°
2026-04-30 21:48 26.67654 -89.06171 33882 ft 477 kts 335°
2026-04-30 21:49 26.73952 -89.08706 33883 ft 478 kts 336°
2026-04-30 21:49 26.80235 -89.11238 33883 ft 476 kts 336°
2026-04-30 21:50 26.86483 -89.13759 33882 ft 474 kts 336°
2026-04-30 21:50 26.92772 -89.16300 33883 ft 477 kts 335°
2026-04-30 21:51 26.99075 -89.18848 33885 ft 477 kts 335°
2026-04-30 21:51 27.05376 -89.21400 33887 ft 477 kts 335°
2026-04-30 21:52 27.11610 -89.23930 33884 ft 473 kts 335°
2026-04-30 21:52 27.17827 -89.26487 33886 ft 473 kts 335°
2026-04-30 21:53 27.24070 -89.29067 33885 ft 474 kts 335°
2026-04-30 21:53 27.30313 -89.31643 33883 ft 473 kts 335°
2026-04-30 21:54 27.36545 -89.34220 33886 ft 478 kts 335°
2026-04-30 21:54 27.42845 -89.36826 33881 ft 473 kts 335°
2026-04-30 21:55 27.49020 -89.39382 33884 ft 471 kts 335°
2026-04-30 21:55 27.55246 -89.41965 33887 ft 475 kts 335°
2026-04-30 21:56 27.61248 -89.45028 33884 ft 464 kts 324°
2026-04-30 21:56 27.66733 -89.48953 33887 ft 463 kts 323°
2026-04-30 21:57 27.72251 -89.52805 33896 ft 467 kts 324°
2026-04-30 21:57 27.77878 -89.56564 33894 ft 462 kts 325°
2026-04-30 21:58 27.83422 -89.60211 33896 ft 462 kts 325°
2026-04-30 21:58 27.88994 -89.63872 33894 ft 461 kts 325°
2026-04-30 21:59 27.94537 -89.67522 33893 ft 463 kts 324°
2026-04-30 22:00 28.02859 -89.73003 33890 ft 464 kts 324°
2026-04-30 22:00 28.11229 -89.78527 33887 ft 460 kts 324°
2026-04-30 22:01 28.16776 -89.82196 33886 ft 461 kts 324°
2026-04-30 22:01 28.22313 -89.85860 33883 ft 460 kts 324°
2026-04-30 22:02 28.27834 -89.89520 33882 ft 460 kts 324°
2026-04-30 22:02 28.33389 -89.93208 33883 ft 461 kts 324°
2026-04-30 22:03 28.38991 -89.96930 33882 ft 463 kts 324°
2026-04-30 22:03 28.44523 -90.00608 33881 ft 459 kts 324°
2026-04-30 22:04 28.50062 -90.04296 33882 ft 458 kts 324°
2026-04-30 22:05 28.58324 -90.09809 33882 ft 461 kts 324°
2026-04-30 22:05 28.63841 -90.13493 33881 ft 457 kts 324°
2026-04-30 22:06 28.69345 -90.17174 33881 ft 458 kts 324°
2026-04-30 22:06 28.77581 -90.22694 33881 ft 457 kts 324°
2026-04-30 22:07 28.83068 -90.26375 33880 ft 456 kts 324°
2026-04-30 22:07 28.85840 -90.28236 33667 ft 462 kts 324°
2026-04-30 22:07 28.88623 -90.30111 33072 ft 469 kts 324°
2026-04-30 22:08 28.91420 -90.31993 32526 ft 468 kts 324°
2026-04-30 22:08 28.94241 -90.33888 31975 ft 465 kts 324°
2026-04-30 22:08 28.97013 -90.35753 31435 ft 468 kts 324°
2026-04-30 22:08 28.99832 -90.37653 30891 ft 474 kts 324°
2026-04-30 22:09 29.02679 -90.39577 30350 ft 479 kts 324°
2026-04-30 22:09 29.05585 -90.41536 29805 ft 479 kts 324°
2026-04-30 22:09 29.08425 -90.43451 29276 ft 479 kts 324°
2026-04-30 22:09 29.11301 -90.45393 28802 ft 480 kts 324°
2026-04-30 22:10 29.14175 -90.47334 28374 ft 474 kts 324°
2026-04-30 22:10 29.16998 -90.49238 27948 ft 462 kts 324°
2026-04-30 22:10 29.19713 -90.51070 27516 ft 453 kts 324°
2026-04-30 22:10 29.22420 -90.52902 27084 ft 449 kts 324°
2026-04-30 22:11 29.27856 -90.56596 26255 ft 453 kts 325°
2026-04-30 22:11 29.30524 -90.58405 25854 ft 443 kts 325°
2026-04-30 22:11 29.33149 -90.60184 25449 ft 439 kts 325°
2026-04-30 22:12 29.35798 -90.61983 25040 ft 437 kts 325°
2026-04-30 22:12 29.38388 -90.63745 24642 ft 435 kts 325°
2026-04-30 22:12 29.41008 -90.65527 24245 ft 432 kts 324°
2026-04-30 22:12 29.43566 -90.67268 23867 ft 431 kts 324°
2026-04-30 22:13 29.46150 -90.69037 23193 ft 432 kts 323°
2026-04-30 22:13 29.48800 -90.70743 22420 ft 434 kts 332°
2026-04-30 22:13 29.51729 -90.71733 21624 ft 438 kts 345°
2026-04-30 22:13 29.54794 -90.71935 20620 ft 441 kts 358°
2026-04-30 22:14 29.57834 -90.71646 19616 ft 431 kts 354°
2026-04-30 22:14 29.60787 -90.71755 18619 ft 421 kts 350°
2026-04-30 22:14 29.63700 -90.71998 17637 ft 415 kts 349°
2026-04-30 22:14 29.66533 -90.72263 16656 ft 409 kts 349°
2026-04-30 22:15 29.69382 -90.72543 15688 ft 405 kts 349°
2026-04-30 22:15 29.72154 -90.72825 14720 ft 401 kts 349°
2026-04-30 22:15 29.74930 -90.73118 13738 ft 398 kts 349°
2026-04-30 22:15 29.77671 -90.73343 12749 ft 397 kts 352°
2026-04-30 22:16 29.80417 -90.73129 11764 ft 401 kts
2026-04-30 22:16 29.83084 -90.72114 10750 ft 400 kts 23°
2026-04-30 22:17 29.88730 -90.65633 7827 ft 371 kts 46°
2026-04-30 22:17 29.90647 -90.63810 7352 ft 346 kts 30°
2026-04-30 22:17 29.94605 -90.61114 6439 ft 310 kts 31°
2026-04-30 22:18 29.96382 -90.59843 5969 ft 292 kts 31°
2026-04-30 22:18 29.99668 -90.57497 5057 ft 266 kts 33°
2026-04-30 22:19 30.01785 -90.54292 4305 ft 242 kts 58°
2026-04-30 22:19 30.02620 -90.52665 4028 ft 227 kts 58°
2026-04-30 22:19 30.04116 -90.49524 3145 ft 221 kts 71°
2026-04-30 22:20 30.04215 -90.47784 2739 ft 214 kts 95°
2026-04-30 22:20 30.03600 -90.44544 2049 ft 200 kts 103°
2026-04-30 22:20 30.03239 -90.43046 1935 ft 193 kts 104°
2026-04-30 22:21 30.02871 -90.41528 1887 ft 192 kts 104°
2026-04-30 22:21 30.02520 -90.40075 1868 ft 184 kts 103°
2026-04-30 22:21 30.02172 -90.38622 1686 ft 184 kts 104°
2026-04-30 22:21 30.01841 -90.37247 1496 ft 168 kts 104°
2026-04-30 22:22 30.01545 -90.36013 1290 ft 155 kts 104°
2026-04-30 22:22 30.01256 -90.34805 1120 ft 158 kts 105°
2026-04-30 22:22 30.00975 -90.33633 896 ft 147 kts 105°
2026-04-30 22:22 30.00709 -90.32530 718 ft 139 kts 105°
2026-04-30 22:23 30.00450 -90.31450 575 ft 145 kts 104°
2026-04-30 22:23 30.00175 -90.30306 398 ft 151 kts 105°
2026-04-30 22:23 29.99896 -90.29133 202 ft 146 kts 104°
2026-04-30 22:23 29.99624 -90.28019 28 ft 140 kts 103°
2026-04-30 22:24 29.99383 -90.27014 14 ft 111 kts 105°
2026-04-30 22:24 29.99218 -90.26331 14 ft 68 kts 105°
2026-04-30 22:24 29.99117 -90.25917 14 ft 43 kts 107°
2026-04-30 22:24 29.99074 -90.25675 14 ft 16 kts 65°
2026-04-30 22:25 29.99178 -90.25629 13 ft 16 kts 354°
2026-04-30 22:25 29.99225 -90.25726 13 ft 15 kts 275°
2026-04-30 22:25 29.99263 -90.25832 13 ft 13 kts 320°
2026-04-30 22:25 29.99326 -90.25861 13 ft 6 kts
2026-04-30 22:26 29.99424 -90.25841 13 ft 7 kts 20°
2026-04-30 22:26 29.99465 -90.25805 14 ft 7 kts 44°
2026-04-30 22:26 29.99486 -90.25781 13 ft 0 kts 45°
2026-04-30 22:27 29.99497 -90.25768 13 ft 3 kts 46°
2026-04-30 22:27 29.99500 -90.25764 14 ft 0 kts 46°
2026-04-30 22:27 29.99513 -90.25748 14 ft 0 kts 46°